Time,TemperatureF,DewpointF,PressureIn,WindDirection,WindDirectionDegrees,WindSpeedMPH,WindSpeedGustMPH,Humidity,HourlyPrecipIn,Conditions,Clouds,dailyrainin,SoftwareType,DateUTC
2013-02-22 00:01:00,10.0,3.0,-100.00,WSW,256,31.0,42.0,73,0.00,,,-99.99,,2013-02-22 07:01:00,
2013-02-22 00:11:00,10.0,3.0,-100.00,WSW,257,29.0,43.0,73,0.00,,,-99.99,,2013-02-22 07:11:00,
2013-02-22 00:21:00,10.0,3.0,-100.00,WSW,254,29.0,38.0,74,0.00,,,-99.99,,2013-02-22 07:21:00,
2013-02-22 00:31:00,10.0,3.0,-100.00,WSW,258,26.0,36.0,73,0.00,,,-99.99,,2013-02-22 07:31:00,
2013-02-22 00:42:00,10.0,3.0,-100.00,West,260,24.0,33.0,74,0.00,,,-99.99,,2013-02-22 07:42:00,
2013-02-22 00:51:00,9.0,3.0,-100.00,West,261,22.0,34.0,75,0.00,,,-99.99,,2013-02-22 07:51:00,
2013-02-22 01:01:00,10.0,3.0,-100.00,West,263,21.0,32.0,74,0.00,,,-99.99,,2013-02-22 08:01:00,
2013-02-22 01:11:00,10.0,3.0,-100.00,WSW,257,24.0,32.0,73,0.00,,,-99.99,,2013-02-22 08:11:00,
2013-02-22 01:21:00,9.0,3.0,-100.00,West,261,19.0,30.0,75,0.00,,,-99.99,,2013-02-22 08:21:00,
2013-02-22 01:31:00,9.0,3.0,-100.00,West,268,12.0,21.0,76,0.00,,,-99.99,,2013-02-22 08:31:00,
2013-02-22 01:41:00,9.0,3.0,-100.00,West,270,9.0,14.0,76,0.00,,,-99.99,,2013-02-22 08:41:00,
2013-02-22 01:52:00,10.0,4.0,-100.00,West,272,11.0,19.0,76,0.00,,,-99.99,,2013-02-22 08:52:00,
2013-02-22 02:02:00,10.0,4.0,-100.00,West,270,13.0,18.0,75,0.00,,,-99.99,,2013-02-22 09:02:00,
2013-02-22 02:11:00,10.0,4.0,-100.00,West,267,11.0,16.0,75,0.00,,,-99.99,,2013-02-22 09:11:00,
2013-02-22 02:21:00,10.0,4.0,-100.00,West,265,13.0,19.0,74,0.00,,,-99.99,,2013-02-22 09:21:00,
2013-02-22 02:31:00,10.0,3.0,-100.00,West,264,16.0,23.0,74,0.00,,,-99.99,,2013-02-22 09:31:00,
2013-02-22 02:41:00,10.0,4.0,-100.00,West,265,17.0,24.0,74,0.00,,,-99.99,,2013-02-22 09:41:00,
2013-02-22 02:51:00,10.0,4.0,-100.00,West,264,18.0,26.0,74,0.00,,,-99.99,,2013-02-22 09:51:00,
2013-02-22 03:01:00,10.0,3.0,-100.00,West,264,19.0,26.0,73,0.00,,,-99.99,,2013-02-22 10:01:00,
2013-02-22 03:11:00,10.0,4.0,-100.00,West,267,16.0,22.0,74,0.00,,,-99.99,,2013-02-22 10:11:00,
2013-02-22 03:21:00,11.0,4.0,-100.00,West,267,16.0,24.0,74,0.00,,,-99.99,,2013-02-22 10:21:00,
2013-02-22 03:31:00,11.0,4.0,-100.00,West,264,17.0,24.0,73,0.00,,,-99.99,,2013-02-22 10:31:00,
2013-02-22 03:42:00,11.0,4.0,-100.00,West,264,16.0,27.0,72,0.00,,,-99.99,,2013-02-22 10:42:00,
2013-02-22 03:51:00,11.0,4.0,-100.00,West,264,17.0,27.0,72,0.00,,,-99.99,,2013-02-22 10:51:00,
2013-02-22 04:01:00,11.0,4.0,-100.00,West,263,17.0,30.0,71,0.00,,,-99.99,,2013-02-22 11:01:00,
2013-02-22 04:11:00,11.0,4.0,-100.00,West,263,20.0,34.0,72,0.00,,,-99.99,,2013-02-22 11:11:00,
2013-02-22 04:21:00,11.0,3.0,-100.00,West,265,17.0,31.0,69,0.00,,,-99.99,,2013-02-22 11:21:00,
2013-02-22 04:31:00,11.0,4.0,-100.00,West,271,17.0,26.0,71,0.00,,,-99.99,,2013-02-22 11:31:00,
2013-02-22 04:42:00,11.0,4.0,-100.00,West,272,14.0,24.0,72,0.00,,,-99.99,,2013-02-22 11:42:00,
2013-02-22 04:52:00,11.0,4.0,-100.00,West,274,12.0,21.0,72,0.00,,,-99.99,,2013-02-22 11:52:00,
2013-02-22 05:01:00,11.0,4.0,-100.00,West,272,12.0,21.0,73,0.00,,,-99.99,,2013-02-22 12:01:00,
2013-02-22 05:11:00,11.0,4.0,-100.00,West,272,12.0,22.0,75,0.00,,,-99.99,,2013-02-22 12:11:00,
2013-02-22 05:21:00,11.0,4.0,-100.00,West,268,13.0,25.0,73,0.00,,,-99.99,,2013-02-22 12:21:00,
2013-02-22 05:32:00,11.0,4.0,-100.00,West,265,14.0,25.0,74,0.00,,,-99.99,,2013-02-22 12:32:00,
2013-02-22 05:42:00,11.0,4.0,-100.00,West,265,14.0,21.0,75,0.00,,,-99.99,,2013-02-22 12:42:00,
2013-02-22 05:51:00,11.0,4.0,-100.00,West,263,17.0,24.0,75,0.00,,,-99.99,,2013-02-22 12:51:00,
2013-02-22 06:01:00,10.0,4.0,-100.00,West,264,15.0,24.0,74,0.00,,,-99.99,,2013-02-22 13:01:00,
2013-02-22 06:11:00,10.0,4.0,-100.00,West,267,13.0,20.0,74,0.00,,,-99.99,,2013-02-22 13:11:00,
2013-02-22 06:22:00,10.0,4.0,-100.00,West,271,9.0,21.0,75,0.00,,,-99.99,,2013-02-22 13:22:00,
2013-02-22 06:31:00,11.0,4.0,-100.00,West,270,10.0,16.0,73,0.00,,,-99.99,,2013-02-22 13:31:00,
2013-02-22 06:41:00,11.0,4.0,-100.00,West,263,17.0,28.0,73,0.00,,,-99.99,,2013-02-22 13:41:00,
2013-02-22 06:51:00,11.0,4.0,-100.00,West,265,16.0,27.0,72,0.00,,,-99.99,,2013-02-22 13:51:00,
2013-02-22 07:01:00,11.0,3.0,-100.00,West,261,18.0,28.0,70,0.00,,,-99.99,,2013-02-22 14:01:00,
2013-02-22 07:11:00,11.0,3.0,-100.00,West,260,21.0,32.0,69,0.00,,,-99.99,,2013-02-22 14:11:00,
2013-02-22 07:21:00,11.0,3.0,-100.00,WSW,258,24.0,35.0,69,0.00,,,-99.99,,2013-02-22 14:21:00,
2013-02-22 07:31:00,11.0,3.0,-100.00,WSW,257,23.0,35.0,69,0.00,,,-99.99,,2013-02-22 14:31:00,
2013-02-22 07:41:00,11.0,3.0,-100.00,WSW,251,27.0,35.0,68,0.00,,,-99.99,,2013-02-22 14:41:00,
2013-02-22 07:52:00,11.0,3.0,-100.00,WSW,251,29.0,39.0,69,0.00,,,-99.99,,2013-02-22 14:52:00,
2013-02-22 08:02:00,-999.0,-99.9,-100.00,WSW,257,28.0,40.0,-999,-99.99,,,-99.99,,2013-02-22 15:02:00,
2013-02-22 08:12:00,-999.0,-99.9,-100.00,WSW,256,29.0,40.0,-999,-99.99,,,-99.99,,2013-02-22 15:12:00,
2013-02-22 08:21:00,12.0,3.0,-100.00,WSW,258,27.0,39.0,67,0.00,,,-99.99,,2013-02-22 15:21:00,
2013-02-22 08:31:00,12.0,2.0,-100.00,West,261,25.0,37.0,65,0.00,,,-99.99,,2013-02-22 15:31:00,
2013-02-22 08:41:00,12.0,2.0,-100.00,West,260,27.0,37.0,64,0.00,,,-99.99,,2013-02-22 15:41:00,
2013-02-22 08:51:00,13.0,2.0,-100.00,WSW,258,28.0,42.0,63,0.00,,,-99.99,,2013-02-22 15:51:00,
2013-02-22 09:01:00,13.0,2.0,-100.00,WSW,257,29.0,40.0,61,0.00,,,-99.99,,2013-02-22 16:01:00,
2013-02-22 09:11:00,13.0,2.0,-100.00,WSW,257,31.0,44.0,59,0.00,,,-99.99,,2013-02-22 16:11:00,
2013-02-22 09:21:00,13.0,2.0,-100.00,WSW,257,31.0,45.0,60,0.00,,,-99.99,,2013-02-22 16:21:00,
2013-02-22 09:31:00,13.0,1.0,-100.00,West,260,32.0,45.0,58,0.00,,,-99.99,,2013-02-22 16:31:00,
2013-02-22 09:41:00,14.0,1.0,-100.00,West,261,31.0,43.0,58,0.00,,,-99.99,,2013-02-22 16:41:00,
2013-02-22 09:52:00,14.0,2.0,-100.00,West,264,29.0,39.0,58,0.00,,,-99.99,,2013-02-22 16:52:00,
2013-02-22 10:01:00,14.0,2.0,-100.00,West,260,31.0,42.0,59,0.00,,,-99.99,,2013-02-22 17:01:00,
2013-02-22 10:11:00,14.0,2.0,-100.00,WSW,257,34.0,49.0,58,0.00,,,-99.99,,2013-02-22 17:11:00,
2013-02-22 10:21:00,15.0,2.0,-100.00,West,261,30.0,40.0,57,0.00,,,-99.99,,2013-02-22 17:21:00,
2013-02-22 10:31:00,15.0,2.0,-100.00,WSW,256,28.0,37.0,57,0.00,,,-99.99,,2013-02-22 17:31:00,
2013-02-22 10:41:00,15.0,2.0,-100.00,West,261,26.0,38.0,55,0.00,,,-99.99,,2013-02-22 17:41:00,
2013-02-22 10:52:00,16.0,2.0,-100.00,WSW,258,24.0,35.0,53,0.00,,,-99.99,,2013-02-22 17:52:00,
2013-02-22 11:01:00,17.0,2.0,-100.00,West,265,21.0,30.0,52,0.00,,,-99.99,,2013-02-22 18:01:00,
2013-02-22 11:11:00,16.0,2.0,-100.00,West,264,19.0,29.0,52,0.00,,,-99.99,,2013-02-22 18:11:00,
2013-02-22 11:22:00,16.0,1.0,-100.00,West,264,21.0,35.0,50,0.00,,,-99.99,,2013-02-22 18:22:00,
2013-02-22 11:31:00,17.0,1.0,-100.00,WSW,257,26.0,35.0,50,0.00,,,-99.99,,2013-02-22 18:31:00,
2013-02-22 11:41:00,17.0,2.0,-100.00,WSW,257,23.0,34.0,50,0.00,,,-99.99,,2013-02-22 18:41:00,
2013-02-22 11:51:00,18.0,2.0,-100.00,West,261,24.0,35.0,49,0.00,,,-99.99,,2013-02-22 18:51:00,
2013-02-22 12:01:00,18.0,2.0,-100.00,WSW,258,26.0,35.0,49,0.00,,,-99.99,,2013-02-22 19:01:00,
2013-02-22 12:11:00,18.0,3.0,-100.00,West,263,24.0,34.0,50,0.00,,,-99.99,,2013-02-22 19:11:00,
2013-02-22 12:21:00,18.0,2.0,-100.00,West,263,23.0,34.0,49,0.00,,,-99.99,,2013-02-22 19:21:00,
2013-02-22 12:31:00,17.0,2.0,-100.00,WSW,257,32.0,43.0,51,0.00,,,-99.99,,2013-02-22 19:31:00,
2013-02-22 12:41:00,18.0,2.0,-100.00,West,260,30.0,42.0,51,0.00,,,-99.99,,2013-02-22 19:41:00,
2013-02-22 12:51:00,19.0,4.0,-100.00,West,263,29.0,41.0,51,0.00,,,-99.99,,2013-02-22 19:51:00,
2013-02-22 13:01:00,19.0,4.0,-100.00,West,264,28.0,46.0,51,0.00,,,-99.99,,2013-02-22 20:01:00,
2013-02-22 13:11:00,18.0,3.0,-100.00,West,261,32.0,47.0,51,0.00,,,-99.99,,2013-02-22 20:11:00,
2013-02-22 13:21:00,18.0,3.0,-100.00,West,261,29.0,42.0,51,0.00,,,-99.99,,2013-02-22 20:21:00,
2013-02-22 13:31:00,18.0,2.0,-100.00,West,261,32.0,45.0,50,0.00,,,-99.99,,2013-02-22 20:31:00,
2013-02-22 13:41:00,19.0,4.0,-100.00,West,263,24.0,40.0,51,0.00,,,-99.99,,2013-02-22 20:41:00,
2013-02-22 13:52:00,19.0,3.0,-100.00,West,268,21.0,37.0,49,0.00,,,-99.99,,2013-02-22 20:52:00,
2013-02-22 14:01:00,20.0,4.0,-100.00,West,271,24.0,36.0,49,0.00,,,-99.99,,2013-02-22 21:01:00,
2013-02-22 14:11:00,19.0,4.0,-100.00,West,271,25.0,40.0,50,0.00,,,-99.99,,2013-02-22 21:11:00,
2013-02-22 14:21:00,20.0,4.0,-100.00,West,271,24.0,39.0,49,0.00,,,-99.99,,2013-02-22 21:21:00,
2013-02-22 14:31:00,19.0,4.0,-100.00,West,270,25.0,37.0,50,0.00,,,-99.99,,2013-02-22 21:31:00,
2013-02-22 14:41:00,20.0,4.0,-100.00,West,268,24.0,37.0,50,0.00,,,-99.99,,2013-02-22 21:41:00,
2013-02-22 14:51:00,19.0,4.0,-100.00,West,265,26.0,37.0,52,0.00,,,-99.99,,2013-02-22 21:51:00,
2013-02-22 15:01:00,19.0,5.0,-100.00,West,270,24.0,34.0,54,0.00,,,-99.99,,2013-02-22 22:01:00,
2013-02-22 15:11:00,-999.0,-99.9,-100.00,West,268,22.0,40.0,-999,-99.99,,,-99.99,,2013-02-22 22:11:00,
2013-02-22 15:21:00,20.0,5.0,-100.00,West,264,21.0,31.0,53,0.00,,,-99.99,,2013-02-22 22:21:00,
2013-02-22 15:31:00,21.0,6.0,-100.00,West,270,21.0,33.0,53,0.00,,,-99.99,,2013-02-22 22:31:00,
2013-02-22 15:41:00,20.0,6.0,-100.00,West,265,27.0,44.0,54,0.00,,,-99.99,,2013-02-22 22:41:00,
2013-02-22 15:51:00,18.0,5.0,-100.00,West,264,30.0,45.0,57,0.00,,,-99.99,,2013-02-22 22:51:00,
2013-02-22 16:01:00,18.0,6.0,-100.00,West,265,35.0,50.0,59,0.00,,,-99.99,,2013-02-22 23:01:00,
2013-02-22 16:11:00,17.0,5.0,-100.00,West,265,34.0,50.0,58,0.00,,,-99.99,,2013-02-22 23:11:00,
2013-02-22 16:21:00,17.0,6.0,-100.00,West,264,32.0,47.0,60,0.00,,,-99.99,,2013-02-22 23:21:00,
2013-02-22 16:32:00,-999.0,-99.9,-100.00,West,265,32.0,50.0,-999,-99.99,,,-99.99,,2013-02-22 23:32:00,
2013-02-22 16:41:00,17.0,5.0,-100.00,West,263,34.0,50.0,59,0.00,,,-99.99,,2013-02-22 23:41:00,
2013-02-22 16:52:00,17.0,5.0,-100.00,West,264,33.0,48.0,60,0.00,,,-99.99,,2013-02-22 23:52:00,
2013-02-22 17:01:00,16.0,5.0,-100.00,West,263,36.0,52.0,60,0.00,,,-99.99,,2013-02-23 00:01:00,
2013-02-22 17:11:00,16.0,5.0,-100.00,West,261,36.0,54.0,62,0.00,,,-99.99,,2013-02-23 00:11:00,
2013-02-22 17:21:00,16.0,6.0,-100.00,West,265,31.0,42.0,63,0.00,,,-99.99,,2013-02-23 00:21:00,
2013-02-22 17:31:00,16.0,6.0,-100.00,West,263,29.0,44.0,63,0.00,,,-99.99,,2013-02-23 00:31:00,
2013-02-22 17:41:00,15.0,6.0,-100.00,West,260,29.0,43.0,64,0.00,,,-99.99,,2013-02-23 00:41:00,
2013-02-22 17:51:00,15.0,6.0,-100.00,WSW,251,37.0,51.0,65,0.00,,,-99.99,,2013-02-23 00:51:00,
2013-02-22 18:01:00,15.0,5.0,-100.00,WSW,258,31.0,43.0,65,0.00,,,-99.99,,2013-02-23 01:01:00,
2013-02-22 18:11:00,15.0,5.0,-100.00,WSW,257,34.0,46.0,64,0.00,,,-99.99,,2013-02-23 01:11:00,
2013-02-22 18:21:00,14.0,4.0,-100.00,West,261,32.0,44.0,64,0.00,,,-99.99,,2013-02-23 01:21:00,
2013-02-22 18:31:00,14.0,5.0,-100.00,West,265,27.0,44.0,65,0.00,,,-99.99,,2013-02-23 01:31:00,
2013-02-22 18:41:00,14.0,4.0,-100.00,West,264,29.0,39.0,64,0.00,,,-99.99,,2013-02-23 01:41:00,
2013-02-22 18:51:00,14.0,4.0,-100.00,West,260,32.0,48.0,65,0.00,,,-99.99,,2013-02-23 01:51:00,
2013-02-22 19:01:00,14.0,4.0,-100.00,West,260,35.0,48.0,64,0.00,,,-99.99,,2013-02-23 02:01:00,
2013-02-22 19:11:00,14.0,4.0,-100.00,West,260,36.0,54.0,64,0.00,,,-99.99,,2013-02-23 02:11:00,
2013-02-22 19:21:00,14.0,5.0,-100.00,West,260,37.0,54.0,65,0.00,,,-99.99,,2013-02-23 02:21:00,
2013-02-22 19:31:00,15.0,5.0,-100.00,West,261,32.0,46.0,65,0.00,,,-99.99,,2013-02-23 02:31:00,
2013-02-22 19:41:00,15.0,5.0,-100.00,WSW,258,32.0,45.0,66,0.00,,,-99.99,,2013-02-23 02:41:00,
2013-02-22 19:52:00,15.0,5.0,-100.00,West,265,29.0,42.0,65,0.00,,,-99.99,,2013-02-23 02:52:00,
2013-02-22 20:01:00,15.0,6.0,-100.00,West,260,29.0,40.0,66,0.00,,,-99.99,,2013-02-23 03:01:00,
2013-02-22 20:11:00,15.0,6.0,-100.00,West,267,26.0,39.0,66,0.00,,,-99.99,,2013-02-23 03:11:00,
2013-02-22 20:21:00,15.0,6.0,-100.00,West,267,25.0,36.0,68,0.00,,,-99.99,,2013-02-23 03:21:00,
2013-02-22 20:31:00,15.0,7.0,-100.00,West,270,24.0,34.0,68,0.00,,,-99.99,,2013-02-23 03:31:00,
2013-02-22 20:41:00,15.0,7.0,-100.00,West,265,26.0,35.0,69,0.00,,,-99.99,,2013-02-23 03:41:00,
2013-02-22 20:51:00,15.0,7.0,-100.00,WSW,258,26.0,35.0,69,0.00,,,-99.99,,2013-02-23 03:51:00,
2013-02-22 21:01:00,15.0,8.0,-100.00,West,264,27.0,41.0,70,0.00,,,-99.99,,2013-02-23 04:01:00,
2013-02-22 21:11:00,-999.0,-99.9,-100.00,West,263,29.0,47.0,-999,-99.99,,,-99.99,,2013-02-23 04:11:00,
2013-02-22 21:21:00,15.0,9.0,-100.00,West,271,26.0,37.0,74,0.00,,,-99.99,,2013-02-23 04:21:00,
2013-02-22 21:31:00,16.0,9.0,-100.00,West,272,27.0,39.0,75,0.00,,,-99.99,,2013-02-23 04:31:00,
2013-02-22 21:41:00,16.0,9.0,-100.00,West,270,30.0,44.0,76,0.00,,,-99.99,,2013-02-23 04:41:00,
2013-02-22 21:51:00,15.0,9.0,-100.00,West,268,30.0,39.0,77,0.00,,,-99.99,,2013-02-23 04:51:00,
2013-02-22 22:01:00,15.0,10.0,-100.00,West,267,30.0,42.0,80,0.00,,,-99.99,,2013-02-23 05:01:00,
2013-02-22 22:11:00,15.0,11.0,-100.00,West,274,29.0,40.0,81,0.00,,,-99.99,,2013-02-23 05:11:00,
2013-02-22 22:22:00,16.0,11.0,-100.00,West,265,32.0,42.0,80,0.00,,,-99.99,,2013-02-23 05:22:00,
2013-02-22 22:32:00,17.0,10.0,-100.00,West,268,34.0,50.0,75,0.00,,,-99.99,,2013-02-23 05:32:00,
2013-02-22 22:41:00,15.0,11.0,-100.00,West,271,30.0,42.0,85,0.00,,,-99.99,,2013-02-23 05:41:00,
2013-02-22 22:52:00,15.0,11.0,-100.00,West,272,26.0,35.0,85,0.00,,,-99.99,,2013-02-23 05:52:00,
2013-02-22 23:01:00,16.0,11.0,-100.00,West,270,26.0,37.0,79,0.00,,,-99.99,,2013-02-23 06:01:00,
2013-02-22 23:11:00,16.0,11.0,-100.00,West,271,28.0,41.0,79,0.00,,,-99.99,,2013-02-23 06:11:00,
2013-02-22 23:20:00,17.0,10.0,-100.00,West,264,34.0,44.0,74,0.00,,,-99.99,,2013-02-23 06:20:00,
2013-02-22 23:21:00,17.0,10.0,-100.00,West,270,29.0,40.0,75,0.00,,,-99.99,,2013-02-23 06:21:00,
2013-02-22 23:31:00,17.0,10.0,-100.00,West,264,34.0,44.0,74,0.00,,,-99.99,,2013-02-23 06:31:00,
2013-02-22 23:41:00,17.0,10.0,-100.00,West,264,34.0,44.0,74,0.00,,,-99.99,,2013-02-23 06:41:00,
2013-02-22 23:51:00,17.0,10.0,-100.00,West,264,34.0,44.0,74,0.00,,,-99.99,,2013-02-23 06:51:00,